Flag for U.S.A. Weather past 2 weeks in Provo, Utah, U.S.A.

Now
54 °F

Clear.


Feels Like: 53 °F
Forecast: 46 / 67 °F
Wind: 5 mph from Northwest

Location: Provo Municipal


UV Index: 0 (Low)

Visibility: 10 mi


Pressure: 29.97 "Hg

Humidity: 72%

Dew point: 45 °F

Location of ProvoLocation

Historic Weather in Provo

°F

Provo temperature yesterday

Maximum temperature yesterday: 70 °F (at 5:15 PM)
Minimum temperature yesterday: 34 °F (at 5:55 AM)
Average temperature yesterday: 49 °F

Past Weeks' High & Low Weather Summary

 TemperatureHumidityPressure
High75 °F (Apr 11, 3:47 PM)93% (Apr 7, 6:35 AM)30.36 "Hg (Apr 7, 6:35 AM)
Low30 °F (Apr 4, 4:15 AM)17% (Apr 15, 4:54 PM)29.69 "Hg (Apr 13, 1:15 AM)
Average48 °F54%30.03 "Hg
* Reported Apr 3 9:15 PM — Apr 18 9:35 PM, Provo, Weather by CustomWeather, © 2014

Note: Actual official high and low records may vary slightly from our data, if they occured in-between our weather recording intervals... More about our weather records

Advertising

Historic Weather Conditions — Data for Previous 24 hours

 ConditionsComfort  
Time TempWeatherWind HumidityBarometerVisibility
9:35 PM
Apr 18
55 °FClear.14 mph63%29.96 "Hg10 mi
8:55 PM55 °FPartly sunny.7 mph63%29.94 "Hg15 mi
7:55 PM57 °FPartly sunny.12 mph59%29.92 "Hg15 mi
6:55 PM59 °FOvercast.13 mph59%29.92 "Hg15 mi
4:53 PM61 °FOvercast.16 mph55%29.92 "Hg15 mi
3:52 PM61 °FOvercast.20 mph52%29.93 "Hg15 mi
2:48 PM63 °FOvercast.22 mph52%29.94 "Hg15 mi
1:50 PM70 °FPartly sunny.12 mph23%29.93 "Hg15 mi
12:47 PM72 °FPartly sunny.7 mph19%29.94 "Hg15 mi
11:48 AM66 °FPartly sunny.No wind22%29.95 "Hg15 mi
10:48 AM64 °FPartly sunny.No wind24%29.93 "Hg15 mi
9:51 AM61 °FMore clouds than sun.9 mph36%29.93 "Hg15 mi
8:51 AM55 °FMore clouds than sun.8 mph44%29.92 "Hg15 mi
7:51 AM54 °FPartly sunny.7 mph44%29.91 "Hg15 mi
6:47 AM55 °FPassing clouds.12 mph38%29.89 "Hg15 mi
6:35 AM54 °FClear.15 mph44%29.88 "Hg10 mi
6:15 AM55 °FClear.14 mph38%29.88 "Hg10 mi
5:55 AM55 °FClear.16 mph38%29.88 "Hg10 mi
5:35 AM55 °FClear.16 mph38%29.89 "Hg10 mi
4:55 AM57 °FClear.15 mph36%29.90 "Hg10 mi
4:35 AM57 °FClear.15 mph36%29.90 "Hg10 mi
4:15 AM57 °FClear.13 mph36%29.90 "Hg10 mi
3:55 AM57 °FClear.13 mph41%29.90 "Hg10 mi
3:35 AM55 °FClear.13 mph44%29.89 "Hg10 mi
3:15 AM57 °FClear.12 mph39%29.89 "Hg10 mi
2:55 AM55 °FClear.14 mph41%29.90 "Hg10 mi
2:35 AM57 °FClear.14 mph41%29.90 "Hg10 mi
2:15 AM57 °FClear.12 mph41%29.91 "Hg10 mi
1:55 AM55 °FPassing clouds.12 mph38%29.91 "Hg10 mi
1:35 AM57 °FPassing clouds.7 mph36%29.91 "Hg10 mi
1:15 AM57 °FClear.13 mph36%29.90 "Hg10 mi
12:55 AM59 °FClear.13 mph39%29.90 "Hg10 mi
12:35 AM57 °FClear.10 mph41%29.90 "Hg10 mi
12:15 AM59 °FClear.17 mph36%29.89 "Hg10 mi
11:55 PM
Apr 17
57 °FClear.16 mph41%29.90 "Hg10 mi
11:35 PM59 °FClear.14 mph39%29.89 "Hg10 mi
11:15 PM57 °FClear.9 mph44%29.89 "Hg10 mi
10:55 PM57 °FClear.10 mph44%29.89 "Hg10 mi
10:35 PM55 °FClear.8 mph47%29.89 "Hg10 mi
10:15 PM55 °FClear.5 mph51%29.89 "Hg10 mi
Weather by CustomWeather, © 2014

See weather overview